Onweer radar Meer informatie blitzortung!


Regen radar Meer informatie rain snow radar


Bezoek onze andere website:

Template documentation
and downloads

And another site



15 daagse weersverwachting Hengelo (NL)

  • Overzicht
  • Per uur
  • 15 dagen
  • Extra
  • Vergelijk
  • Kaarten
  • Dagkaart
  • Meer »
  • Info
  • Statistieken
  • Directe link
    Temp 6h Neerslag Wind  
 05:59     21:24    Daglengte: 15:25 Morgen
02:00
14°
 
3
08:00
15°
 
3
14:00
19°
0.6 mm
5
warningclass
20:00
16°
24.1 mm
3
 06:01     21:22    Daglengte: 15:21 Maandag 02 Aug
02:00
14°
 
2
08:00
14°
 
2
14:00
19°
 
3
20:00
18°
9.5 mm
3
 06:02     21:21    Daglengte: 15:19 Dinsdag 03 Aug
02:00
12°
 
1
08:00
13°
 
1
14:00
20°
 
2
20:00
20°
 
2
Locatie info
Region: Gelderland
Latitude: 52.0514°N
Longitude: 6.3090°E
18 masl
Postcode: 7551 AA
Temp/Neerslag /Baro Onweer/Dauwpunt
    Temp Baro 1h Neerslag Dauwpunt Wind UV Bewolking  
 05:59     21:24    Daglengte: 15:25 Morgen
00:00
15°
1009.3 hPa
47%
13.4°
3
Windvlaag: 3.6 m/s
12%
01:00
14°
1009.2 hPa
12%
13.3°
3
Windvlaag: 3.7 m/s
26%
02:00
14°
1009.0 hPa
12%
13.2°
3
Windvlaag: 3.3 m/s
24%
03:00
13°
1008.7 hPa
12%
12.8°
2
Windvlaag: 3.2 m/s
30%
04:00
13°
1008.4 hPa
12%
12.9°
2
Windvlaag: 3.7 m/s
52%
05:00
13°
1008.1 hPa
12%
13.0°
3
Windvlaag: 3.6 m/s
43%
06:00
13°
1008.4 hPa
12%
13.0°
3
Windvlaag: 4.4 m/s
57%
07:00
14°
1008.3 hPa
13%
13.3°
3
Windvlaag: 5 m/s
61%
08:00
15°
1008.5 hPa
13%
13.6°
3
Windvlaag: 5.3 m/s
64%
09:00
15°
1008.5 hPa
13%
14.1°
4
Windvlaag: 5.2 m/s
65%
10:00
17°
1008.6 hPa
22%
14.2°
4
Windvlaag: 4.7 m/s
57%
11:00
18°
1008.6 hPa
15%
14.7°
4
Windvlaag: 4.4 m/s
64%
12:00
18°
1008.7 hPa
64%
15.0°
5
Windvlaag: 4.8 m/s
63%
13:00
18°
1008.6 hPa 0.6 mm
82%
14.4°
5
Windvlaag: 4.6 m/s
53%
14:00
19°
1008.5 hPa
82%
15.6°
5
Windvlaag: 4.5 m/s
43%
15:00
19°
1008.5 hPa 1.2 mm
82%
16.4°
4
Windvlaag: 3.8 m/s
73%
16:00
19°
1008.6 hPa 1.8 mm
82%
16.4°
4
Windvlaag: -0.6 m/s
34%
17:00
18°
1008.6 hPa 3.2 mm
82%
16.4°
4
Windvlaag: 1.2 m/s
62% warningclass
18:00
18°
1008.9 hPa 5.7 mm
82%
14.9°
4
Windvlaag: 0.8 m/s
74%
19:00
17°
1009.0 hPa 6.4 mm
82%
13.9°
4
Windvlaag: -0.2 m/s
48%
20:00
16°
1009.4 hPa 6.0 mm
82%
13.6°
3
Windvlaag: -1.8 m/s
52%
21:00
16°
1009.6 hPa
82%
13.7°
2
Windvlaag: -2.5 m/s
53%
22:00
15°
1010.3 hPa
37%
13.5°
2
Windvlaag: -0.6 m/s
45%
23:00
15°
1010.7 hPa
61%
13.2°
2
Windvlaag: 0.3 m/s
69%
 06:01     21:22    Daglengte: 15:21 Maandag 02 Aug
00:00
15°
1010.9 hPa
66%
12.4°
2
Windvlaag: -0.2 m/s
51%
01:00
14°
1011.0 hPa
63%
12.2°
2
Windvlaag: 0.1 m/s
61%
02:00
14°
1011.0 hPa
26%
11.8°
2
Windvlaag: 1.5 m/s
49%
03:00
14°
1011.0 hPa
21%
12.0°
2
Windvlaag: 1.3 m/s
39%
04:00
13°
1011.2 hPa
20%
11.8°
2
Windvlaag: 1 m/s
19%
05:00
13°
1011.1 hPa
22%
11.6°
2
Windvlaag: 0.6 m/s
14%
06:00
12°
1011.5 hPa
18%
11.2°
2
Windvlaag: 0.7 m/s
10%
07:00
13°
1011.8 hPa
14%
11.2°
2
Windvlaag: 1.7 m/s
7%
08:00
14°
1012.2 hPa
14%
11.6°
2
Windvlaag: 1.6 m/s
6%
09:00
15°
1012.4 hPa
14%
11.9°
2
Windvlaag: 2.2 m/s
7%
10:00
16°
1012.6 hPa
14%
11.3°
3
Windvlaag: 1.3 m/s
8%
11:00
17°
1012.8 hPa
14%
11.1°
3
Windvlaag: 0.7 m/s
13%
12:00
18°
1013.0 hPa
14%
10.9°
3
Windvlaag: 0.6 m/s
10%
13:00
19°
1013.2 hPa
14%
11.9°
3
Windvlaag: 2.5 m/s
11%
14:00
19°
1013.3 hPa
14%
12.1°
3
Windvlaag: 1.1 m/s
15%
15:00
19°
1013.3 hPa
14%
11.5°
4
Windvlaag: -0.3 m/s
20%
16:00
18°
1013.1 hPa
14%
11.4°
3
Windvlaag: -1.2 m/s
11%
17:00
20°
1012.5 hPa
21%
11.2°
3
Windvlaag: 3.2 m/s
33%
18:00
20°
1012.5 hPa 9.5 mm
21%
11.0°
3
Windvlaag: -0.4 m/s
68%
19:00
19°
1012.4 hPa
21%
10.9°
3
Windvlaag: -1.3 m/s
30%
20:00
18°
1012.6 hPa
21%
10.2°
3
Windvlaag: -1.3 m/s
31%
21:00
16°
1013.0 hPa
21%
10.6°
2
Windvlaag: -0.8 m/s
35%
22:00
15°
1013.4 hPa
21%
9.2°
2
Windvlaag: -0.3 m/s
12%
23:00
14°
1013.7 hPa
21%
9.9°
2
Windvlaag: 1.2 m/s
31%
 06:02     21:21    Daglengte: 15:19 Dinsdag 03 Aug
00:00
13°
1014.0 hPa
21%
10.2°
1
Windvlaag: 0.9 m/s
56%
01:00
12°
1014.0 hPa
21%
10.4°
1
Windvlaag: 0.5 m/s
41%
02:00
12°
1013.9 hPa
21%
10.2°
1
Windvlaag: 0.1 m/s
40%
03:00
11°
1013.9 hPa
21%
10.0°
1
Windvlaag: -0 m/s
41%
04:00
11°
1013.7 hPa
21%
9.8°
1
Windvlaag: -0.1 m/s
54%
05:00
11°
1013.5 hPa
21%
9.8°
1
Windvlaag: 0.1 m/s
66%
06:00
10°
1013.5 hPa
21%
9.3°
1
Windvlaag: 0.1 m/s
60%
07:00
11°
1013.7 hPa
21%
9.6°
1
Windvlaag: -0 m/s
47%
08:00
13°
1013.9 hPa
21%
10.2°
1
Windvlaag: -0.1 m/s
49%
09:00
15°
1014.3 hPa
21%
10.7°
1
Windvlaag: -1.7 m/s
50%
10:00
16°
1014.2 hPa
21%
10.3°
2
Windvlaag: -1.7 m/s
56%
11:00
18°
1014.0 hPa
21%
10.2°
2
Windvlaag: -2.2 m/s
42%
12:00
19°
1013.8 hPa
21%
10.2°
2
Windvlaag: -2.4 m/s
44%
13:00
19°
1013.7 hPa
21%
9.5°
2
Windvlaag: -2.5 m/s
35%
14:00
20°
1013.3 hPa
21%
9.3°
2
Windvlaag: -2.8 m/s
32%
15:00
21°
1012.7 hPa
21%
9.7°
2
Windvlaag: 3.2 m/s
7%
16:00
22°
1012.5 hPa
21%
10.4°
2
Windvlaag: 3.8 m/s
10%
17:00
22°
1012.3 hPa
21%
10.9°
2
Windvlaag: 4 m/s
16%
18:00
22°
1011.9 hPa
22%
11.4°
2
Windvlaag: 4.2 m/s
20%
19:00
21°
1011.8 hPa
21%
13.1°
3
Windvlaag: 5.7 m/s
17%
20:00
20°
1012.2 hPa
21%
13.4°
2
Windvlaag: 6 m/s
15%
21:00
17°
1011.8 hPa 27.9 mm
100%
12.2°
3
Windvlaag: 5.5 m/s
79%
22:00
16°
1012.1 hPa 27.9 mm
100%
11.7°
4
Windvlaag: 7.3 m/s
81%
23:00
15°
1012.3 hPa 27.9 mm
100%
11.1°
4
Windvlaag: 7.3 m/s
66%
Temp/Neerslag /Baro Onweer/Dauwpunt
    Temp Baro Neerslag Dauwpunt Wind Bewolking  
 05:59     21:24    Daglengte: 15:25 Morgen
02:00
14°
1009.0 hPa   13.2°
3
24%
05:00
13°
1008.1 hPa   13.0°
3
43%
08:00
15°
1008.5 hPa   13.6°
3
64%
11:00
18°
1008.6 hPa   14.7°
4
64%
14:00
19°
1008.5 hPa 0.6 mm 15.6°
5
43% warningclass
17:00
18°
1008.6 hPa 6.1 mm 16.4°
4
62% warningclass
20:00
16°
1009.4 hPa 18.0 mm 13.6°
3
52%
23:00
15°
1010.7 hPa   13.2°
2
69%
 06:01     21:22    Daglengte: 15:21 Maandag 02 Aug
02:00
14°
1011.0 hPa   11.8°
2
49%
05:00
13°
1011.1 hPa   11.6°
2
14%
08:00
14°
1012.2 hPa   11.6°
2
6%
11:00
17°
1012.8 hPa   11.1°
3
13%
14:00
19°
1013.3 hPa   12.1°
3
15%
17:00
20°
1012.5 hPa   11.2°
3
33%
20:00
18°
1012.6 hPa 9.5 mm 10.2°
3
31%
23:00
14°
1013.7 hPa   9.9°
2
31%
 06:02     21:21    Daglengte: 15:19 Dinsdag 03 Aug
02:00
12°
1013.9 hPa   10.2°
1
40%
05:00
11°
1013.5 hPa   9.8°
1
66%
08:00
13°
1013.9 hPa   10.2°
1
49%
11:00
18°
1014.0 hPa   10.2°
2
42%
14:00
20°
1013.3 hPa   9.3°
2
32%
17:00
22°
1012.3 hPa   10.9°
2
16%
20:00
20°
1012.2 hPa   13.4°
2
15%
23:00
15°
1012.3 hPa 83.7 mm 11.1°
4
66%
 06:04     21:19    Daglengte: 15:15 Woensdag 04 Aug
02:00
11°
1013.1 hPa 83.7 mm 10.4°
3
36%
05:00
13°
1012.1 hPa 15.6 mm 12.8°
4
1%
08:00
13°
1012.6 hPa 20.3 mm 12.5°
4
1%
11:00
12°
1013.1 hPa 24.6 mm 11.8°
4
1%
14:00
13°
1013.5 hPa 27.9 mm 12.2°
3
1%
17:00
15°
1013.7 hPa 28.0 mm 13.5°
3
1%
20:00
14°
1013.8 hPa 28.2 mm 13.8°
3
1%
23:00
13°
1014.3 hPa 28.4 mm 13.3°
2
1%
 06:05     21:17    Daglengte: 15:12 Donderdag 05 Aug
02:00
14°
1013.8 hPa 28.6 mm 13.2°
1
1%
05:00
13°
1012.6 hPa 28.7 mm 13.0°
2
1%
08:00
14°
1012.4 hPa 28.7 mm 12.7°
3
1%
11:00
17°
1011.1 hPa 28.8 mm 13.1°
3
1%
14:00
18°
1009.5 hPa 29.8 mm 13.5°
4
1%
17:00
19°
1008.0 hPa 30.5 mm 13.3°
4
1%
20:00
16°
1006.8 hPa 30.5 mm 12.8°
4
1%
23:00
14°
1005.5 hPa 30.6 mm 12.4°
4
1%
 06:07     21:15    Daglengte: 15:08 Vrijdag 06 Aug
02:00
14°
1004.4 hPa 30.7 mm 12.5°
5
1%
05:00
14°
1002.9 hPa 30.8 mm 12.9°
5
1%
08:00
15°
1002.2 hPa 31.0 mm 13.7°
5
1%
11:00
15°
1001.9 hPa 31.4 mm 13.9°
6
1%
14:00
15°
1001.6 hPa 32.4 mm 14.3°
7
1%
17:00
17°
1001.4 hPa 33.6 mm 15.5°
7
1%
20:00
17°
1002.0 hPa 35.6 mm 15.1°
6
1%
23:00
15°
1004.1 hPa 35.9 mm 14.1°
6
0%
 06:08     21:13    Daglengte: 15:05 Zaterdag 07 Aug
02:00
15°
1005.2 hPa 35.9 mm 14.0°
7
0%
05:00
14°
1006.4 hPa 35.9 mm 13.4°
7
1%
08:00
14°
1007.6 hPa 35.9 mm 13.1°
6
1%
11:00
15°
1008.8 hPa 35.9 mm 13.4°
6
1%
14:00
19°
1009.1 hPa 36.0 mm 13.3°
6
1%
17:00
21°
1008.7 hPa 36.1 mm 11.9°
4
1%
20:00
19°
1009.3 hPa 36.1 mm 13.7°
3
1%
23:00
17°
1009.2 hPa   11.8°
3
1%
 06:10     21:12    Daglengte: 15:02 Zondag 08 Aug
02:00
16°
1009.2 hPa 72.6 mm 12.3°
3
1%
08:00
15°
1008.2 hPa 74.6 mm 14.4°
5
1%
14:00
21°
1009.3 hPa 90.4 mm 13.2°
9
1%
20:00
19°
1009.7 hPa 91.6 mm 13.9°
9
0%
 06:12     21:10    Daglengte: 14:58 Maandag 09 Aug
02:00
15°
1012.4 hPa 93.1 mm 11.7°
9
1%
08:00
16°
1015.0 hPa 93.4 mm 13.3°
8
1%
14:00
17°
1017.7 hPa 96.4 mm 14.9°
8
1%
20:00
16°
1020.2 hPa 100.3 mm 13.4°
6
1%
 06:13     21:08    Daglengte: 14:55 Dinsdag 10 Aug
02:00
15°
1021.9 hPa 101.0 mm 11.6°
5
1%
08:00
15°
1022.1 hPa 101.1 mm 13.2°
4
1%
14:00
20°
1022.6 hPa 101.2 mm 14.2°
4
1%
20:00
19°
1019.5 hPa 1.0 mm 14.2°
2
51%
 06:15     21:06    Daglengte: 14:51 Woensdag 11 Aug
02:00
14°
1020.4 hPa 0.1 mm 12.0°
2
40%
08:00
15°
1020.4 hPa   12.7°
2
39%
14:00
21°
1020.2 hPa 0.5 mm 13.3°
2
57%
20:00
19°
1019.9 hPa 0.7 mm 13.9°
2
52%
 06:16     21:04    Daglengte: 14:48 Donderdag 12 Aug
02:00
14°
1020.5 hPa 0.3 mm 11.8°
1
33%
08:00
15°
1020.3 hPa 0.4 mm 12.3°
1
51%
14:00
22°
1019.8 hPa 0.4 mm 13.3°
1
60%
20:00
20°
1019.4 hPa 0.7 mm 14.5°
2
58%
 06:18     21:02    Daglengte: 14:44 Vrijdag 13 Aug
02:00
15°
1019.8 hPa 0.1 mm 12.5°
1
46%
08:00
16°
1019.6 hPa   13.2°
1
52%
14:00
22°
1019.4 hPa 0.5 mm 14.4°
2
59%
20:00
20°
1019.0 hPa 0.4 mm 14.5°
2
56%
 06:20     21:00    Daglengte: 14:40 Zaterdag 14 Aug
02:00
15°
1019.3 hPa 0.1 mm 12.4°
1
51%
08:00
16°
1019.0 hPa 0.2 mm 13.2°
1
54%
14:00
22°
1018.7 hPa 0.4 mm 14.2°
2
66%
20:00
20°
1018.2 hPa 0.4 mm 14.5°
1
56%
 06:21     20:58    Daglengte: 14:37 Zondag 15 Aug
02:00
15°
1018.5 hPa 0.3 mm 12.5°
1
48%
08:00
15°
1017.8 hPa 0.2 mm 13.3°
2
53%
14:00
22°
1017.5 hPa 0.9 mm 14.4°
3
53%
20:00
19°
1017.3 hPa 0.8 mm 14.8°
2
56%
  CAPE Lifted Index Hail Supercell Tornado SRH 3km CL BTM PRES CL TOP PRES Swiss DWD icon SMHI TS
 05:59     21:24    Daglengte: 15:25 Morgen
00:00 23 J/kg 0.3 K 0 % 0 % 0 % 0 m²/s² 0 0 1.47 2
01:00 5 J/kg 0.5 K 0 % 0 % 0 % 0 m²/s² 0 0 1.67 3
02:00 16 J/kg 0.7 K 0 % 0 % 0 % 0 m²/s² 0 0 1.81 3
03:00 21 J/kg 0.9 K 0 % 0 % 0 % 0 m²/s² 0 0 1.77 3
04:00 5 J/kg 0.8 K 0 % 0 % 0 % 0 m²/s² 0 0 1.58 3
05:00 14 J/kg -0.1 K 0 % 0 % 0 % 0 m²/s² 0 0 0.83 3
06:00 17 J/kg 0.1 K 0 % 0 % 0 % 0 m²/s² 0 0 0.82 3
07:00 0 J/kg 0.0 K 0 % 0 % 0 % 0 m²/s² 0 0 1.26 3
08:00 0 J/kg -0.6 K 0 % 0 % 0 % 0 m²/s² 0 0 0.66 3
09:00 148 J/kg -0.4 K 0 % 0 % 0 % 0 m²/s² 0 0 0.68 3
10:00 402 J/kg -1.4 K 0 % 0 % 0 % 0 m²/s² 0 0 -0.53 3
11:00 536 J/kg -2.0 K 0 % 0 % 0 % 0 m²/s² 0 0 -1.19 3
12:00 630 J/kg -2.5 K 0 % 0 % 0 % 0 m²/s² 0 0 -1.69 3
13:00 690 J/kg -2.8 K 0 % 0 % 0 % 0 m²/s² 0 0 -1.93 80
14:00 741 J/kg -2.8 K 0 % 0 % 0 % 0 m²/s² 0 0 -2.17 2
15:00 215 J/kg -2.2 K 0 % 0 % 0 % 0 m²/s² 0 0 -1.96 80
16:00 79 J/kg -2.3 K 0 % 0 % 0 % 0 m²/s² 0 0 -1.22 80
17:00 170 J/kg 0.1 K 0 % 0 % 0 % 0 m²/s² 0 0 0.28 95
18:00 19 J/kg 0.6 K 0 % 0 % 0 % 0 m²/s² 0 0 0.72 80
19:00 528 J/kg -2.4 K 0 % 0 % 0 % 0 m²/s² 0 0 -1.8 80
20:00 594 J/kg -2.0 K 0 % 0 % 0 % 0 m²/s² 0 0 -0.89 3
21:00 341 J/kg -0.9 K 0 % 0 % 0 % 0 m²/s² 0 0 1.02 80
22:00 144 J/kg 0.8 K 0 % 0 % 0 % 0 m²/s² 0 0 2.12 3
23:00 35 J/kg 2.1 K 0 % 0 % 0 % 0 m²/s² 0 0 2.79 3
 06:01     21:22    Daglengte: 15:21 Maandag 02 Aug
00:00 3 J/kg 2.7 K 0 % 0 % 0 % 0 m²/s² 0 0 3.93 80
01:00 0 J/kg 3.1 K 0 % 0 % 0 % 0 m²/s² 0 0 5.14 3
02:00 0 J/kg 3.8 K 0 % 0 % 0 % 0 m²/s² 0 0 6.02 3
03:00 0 J/kg 4.3 K 0 % 0 % 0 % 0 m²/s² 0 0 7.18 3
04:00 0 J/kg 4.6 K 0 % 0 % 0 % 0 m²/s² 0 0 8.47 3
05:00 0 J/kg 5.6 K 0 % 0 % 0 % 0 m²/s² 0 0 11 3
06:00 0 J/kg 6.3 K 0 % 0 % 0 % 0 m²/s² 0 0 12.33 3
07:00 0 J/kg 6.1 K 0 % 0 % 0 % 0 m²/s² 0 0 11.65 2
08:00 0 J/kg 5.5 K 0 % 0 % 0 % 0 m²/s² 0 0 10.87 1
09:00 32 J/kg 5.1 K 0 % 0 % 0 % 0 m²/s² 0 0 8.97 1
10:00 20 J/kg 5.2 K 0 % 0 % 0 % 0 m²/s² 0 0 6.91 2
11:00 15 J/kg 5.2 K 0 % 0 % 0 % 0 m²/s² 0 0 6.07 2
12:00 17 J/kg 4.8 K 0 % 0 % 0 % 0 m²/s² 0 0 5.1 2
13:00 28 J/kg 4.0 K 0 % 0 % 0 % 0 m²/s² 0 0 4.51 2
14:00 30 J/kg 3.4 K 0 % 0 % 0 % 0 m²/s² 0 0 4.18 2
15:00 22 J/kg 3.4 K 0 % 0 % 0 % 0 m²/s² 0 0 4.24 2
16:00 42 J/kg 2.9 K 0 % 0 % 0 % 0 m²/s² 0 0 4.43 2
17:00 60 J/kg 2.6 K 0 % 0 % 0 % 0 m²/s² 0 0 5.9 2
18:00 61 J/kg 2.2 K 0 % 0 % 0 % 0 m²/s² 0 0 5.98 2
19:00 55 J/kg 2.3 K 0 % 0 % 0 % 0 m²/s² 0 0 6.38 2
20:00 6 J/kg 3.3 K 0 % 0 % 0 % 0 m²/s² 0 0 7.47 2
21:00 1 J/kg 4.0 K 0 % 0 % 0 % 0 m²/s² 0 0 8.5 2
22:00 0 J/kg 4.6 K 0 % 0 % 0 % 0 m²/s² 0 0 9.34 2
23:00 0 J/kg 4.5 K 0 % 0 % 0 % 0 m²/s² 0 0 9.12 2
 06:02     21:21    Daglengte: 15:19 Dinsdag 03 Aug
00:00 0 J/kg 4.1 K 0 % 0 % 0 % 0 m²/s² 0 0 8.6 3
01:00 0 J/kg 3.9 K 0 % 0 % 0 % 0 m²/s² 0 0 8.52 3
02:00 0 J/kg 4.7 K 0 % 0 % 0 % 0 m²/s² 0 0 9.32 3
03:00 0 J/kg 4.1 K 0 % 0 % 0 % 0 m²/s² 0 0 8.6 2
04:00 0 J/kg 3.6 K 0 % 0 % 0 % 0 m²/s² 0 0 8.1 2
05:00 0 J/kg 4.2 K 0 % 0 % 0 % 0 m²/s² 0 0 8.82 3
06:00 0 J/kg 5.2 K 0 % 0 % 0 % 0 m²/s² 0 0 9.58 2
07:00 0 J/kg 5.3 K 0 % 0 % 0 % 0 m²/s² 0 0 9.8 2
08:00 0 J/kg 4.8 K 0 % 0 % 0 % 0 m²/s² 0 0 8.97 2
09:00 0 J/kg 4.3 K 0 % 0 % 0 % 0 m²/s² 0 0 8.38 2
10:00 0 J/kg 4.3 K 0 % 0 % 0 % 0 m²/s² 0 0 8.38 2
11:00 1 J/kg 4.3 K 0 % 0 % 0 % 0 m²/s² 0 0 8.47 1
12:00 5 J/kg 3.8 K 0 % 0 % 0 % 0 m²/s² 0 0 7.76 2
13:00 1 J/kg 4.1 K 0 % 0 % 0 % 0 m²/s² 0 0 8.06 1
14:00 2 J/kg 3.8 K 0 % 0 % 0 % 0 m²/s² 0 0 7.28 2
15:00 1 J/kg 3.8 K 0 % 0 % 0 % 0 m²/s² 0 0 6.95 2
16:00 6 J/kg 3.3 K 0 % 0 % 0 % 0 m²/s² 0 0 6.03 2
17:00 24 J/kg 2.6 K 0 % 0 % 0 % 0 m²/s² 0 0 5.03 1
18:00 55 J/kg 2.1 K 0 % 0 % 0 % 0 m²/s² 0 0 4.62 1
19:00 61 J/kg 1.6 K 0 % 0 % 0 % 0 m²/s² 0 0 4.36 1
20:00 62 J/kg 1.5 K 0 % 0 % 0 % 0 m²/s² 0 0 4.74 0
21:00 61 J/kg 2.0 K 0 % 0 % 0 % 0 m²/s² 0 0 5.99
22:00 14 J/kg 2.7 K 0 % 0 % 0 % 0 m²/s² 0 0 7.35
23:00 0 J/kg 2.9 K 0 % 0 % 0 % 0 m²/s² 0 0 7.79
Temp Baro Wind Neerslag
  EWN Forecast EWN WRFDA DWD ICON FMI HIRLAM MET Norway GFS
 05:59     21:24    Daglengte: 15:25 Morgen
02:00 13.8° 1009.0 hPa 2.6 m/s 0.0 mm 11.9° 1008.4 hPa 2.7 m/s 0.0 mm 14.3° 1009.5 hPa 2.8 m/s -0.7 mm 12.9° 1008.4 hPa 1.5 m/s 0.0 mm 12.8° 1009.1 hPa 3.1 m/s
05:00 13.4° 1008.1 hPa 2.6 m/s 0.0 mm 11.1° 1007.4 hPa 2.7 m/s 0.0 mm 14.2° 1008.6 hPa 2.8 m/s 0.0 mm 13.0° 1007.4 hPa 2.1 m/s 0.0 mm 12.0° 1008.5 hPa 2.9 m/s
08:00 14.6° 1008.5 hPa 3.4 m/s 0.0 mm 14.8° 1007.1 hPa 2.8 m/s 0.0 mm 14.6° 1008.8 hPa 3.5 m/s 0.0 mm 14.8° 1007.6 hPa 3.1 m/s 0.0 mm 14.0° 1008.9 hPa 4.1 m/s
11:00 17.7° 1008.6 hPa 4.3 m/s 0.0 mm 19.0° 1007.2 hPa 3.4 m/s 1.1 mm 17.9° 1008.9 hPa 4.5 m/s 0.0 mm 18.1° 1007.7 hPa 3.5 m/s 0.0 mm 18.7° 1008.9 hPa 4.5 m/s
14:00 19.1° 1008.5 hPa 4.8 m/s 0.6 mm 21.2° 1007.0 hPa 5.4 m/s 5.7 mm 19.2° 1009.2 hPa 4.8 m/s 0.3 mm 19.0° 1007.6 hPa 4.6 m/s 0.0 mm 20.3° 1008.4 hPa 4.8 m/s
17:00 18.5° 1008.6 hPa 4.2 m/s 6.1 mm 16.0° 1008.2 hPa 4.9 m/s 22.8 mm 19.2° 1008.9 hPa 4.4 m/s 1.7 mm 18.3° 1007.5 hPa 3.8 m/s 0.0 mm 19.9° 1009.1 hPa 5.1 m/s
20:00 16.5° 1009.4 hPa 3.3 m/s 18.0 mm 17.7° 1007.9 hPa 1.6 m/s 78.3 mm 16.7° 1009.5 hPa 3.4 m/s 2.5 mm 16.4° 1008.8 hPa 3.3 m/s 0.0 mm 16.9° 1009.9 hPa 4.3 m/s
23:00 14.8° 1010.7 hPa 2.0 m/s 0.0 mm 14.9° 1009.2 hPa 2.7 m/s 83.7 mm 15.2° 1010.7 hPa 1.7 m/s 0.4 mm 15.0° 1010.4 hPa 1.8 m/s 0.0 mm 13.0° 1011.6 hPa 2.6 m/s
 06:01     21:22    Daglengte: 15:21 Maandag 02 Aug
02:00 14.1° 1011.0 hPa 2.2 m/s 0.0 mm 14.1° 1009.5 hPa 2.2 m/s 83.7 mm 14.2° 1011.2 hPa 1.4 m/s 0.4 mm 14.6° 1010.4 hPa 3.1 m/s 0.0 mm 12.5° 1012.4 hPa 1.9 m/s
05:00 12.5° 1011.1 hPa 2.1 m/s 0.0 mm 10.1° 1009.9 hPa 2.3 m/s 83.7 mm 14.0° 1011.2 hPa 1.6 m/s 0.0 mm 12.8° 1010.7 hPa 2.6 m/s 0.0 mm 11.7° 1012.7 hPa 2.6 m/s
08:00 13.5° 1012.2 hPa 1.9 m/s 0.0 mm 13.7° 1011.3 hPa 2.0 m/s 83.7 mm 14.4° 1012.3 hPa 1.8 m/s 0.0 mm 13.6° 1011.7 hPa 2.9 m/s 0.0 mm 12.8° 1013.8 hPa 2.2 m/s
11:00 17.3° 1012.8 hPa 3.0 m/s 0.0 mm 17.0° 1011.6 hPa 2.9 m/s 83.7 mm 17.5° 1012.7 hPa 2.8 m/s 0.0 mm 17.4° 1012.8 hPa 4.7 m/s 0.0 mm 16.7° 1014.3 hPa 3.5 m/s
14:00 19.1° 1013.3 hPa 3.4 m/s 0.0 mm 19.0° 1011.6 hPa 4.0 m/s 83.7 mm 20.0° 1012.7 hPa 3.4 m/s 0.0 mm 17.7° 1013.8 hPa 3.7 m/s 0.0 mm 19.4° 1013.8 hPa 3.9 m/s
17:00 19.9° 1012.5 hPa 3.3 m/s 0.0 mm 20.0° 1011.1 hPa 4.2 m/s 83.7 mm 20.7° 1012.6 hPa 3.5 m/s 0.0 mm 20.2° 1013.1 hPa 3.2 m/s
20:00 18.3° 1012.6 hPa 2.6 m/s 9.5 mm 18.6° 1011.3 hPa 4.0 m/s 83.7 mm 18.7° 1012.5 hPa 2.7 m/s 0.0 mm 18.1° 1013.3 hPa 1.0 m/s
23:00 13.7° 1013.7 hPa 1.5 m/s 0.0 mm 13.0° 1012.1 hPa 2.8 m/s 83.7 mm 14.4° 1013.8 hPa 1.4 m/s 0.0 mm 13.0° 1014.2 hPa 3.0 m/s
 06:02     21:21    Daglengte: 15:19 Dinsdag 03 Aug
02:00 11.8° 1013.9 hPa 1.4 m/s 0.0 mm 10.3° 1012.3 hPa 2.3 m/s 83.7 mm 12.7° 1014.0 hPa 1.4 m/s 0.0 mm 11.7° 1013.8 hPa 2.4 m/s
05:00 10.7° 1013.5 hPa 1.2 m/s 0.0 mm 10.0° 1011.9 hPa 2.1 m/s 83.7 mm 11.4° 1013.7 hPa 1.1 m/s 0.0 mm 12.8° 1013.0 hPa 2.0 m/s
08:00 12.7° 1013.9 hPa 1.3 m/s 0.0 mm 13.0° 1012.5 hPa 1.9 m/s 83.7 mm 13.2° 1014.1 hPa 1.3 m/s 0.0 mm 13.7° 1013.0 hPa 2.4 m/s
11:00 17.5° 1014.0 hPa 1.9 m/s 0.0 mm 17.4° 1012.0 hPa 2.7 m/s 83.7 mm 18.5° 1014.2 hPa 1.8 m/s 0.0 mm 15.2° 1012.9 hPa 2.4 m/s
14:00 20.0° 1013.3 hPa 1.8 m/s 0.0 mm 19.9° 1011.1 hPa 2.9 m/s 83.7 mm 20.7° 1013.6 hPa 1.6 m/s 0.0 mm 16.9° 1012.3 hPa 3.0 m/s
17:00 21.8° 1012.3 hPa 1.9 m/s 0.0 mm 20.9° 1010.9 hPa 3.9 m/s 83.7 mm 22.0° 1012.6 hPa 1.5 m/s 0.0 mm 17.8° 1012.1 hPa 3.8 m/s
20:00 20.1° 1012.2 hPa 2.1 m/s 0.0 mm 19.0° 1011.1 hPa 5.0 m/s 83.7 mm 20.4° 1012.5 hPa 1.3 m/s 0.0 mm 16.7° 1012.4 hPa 3.5 m/s
23:00 14.9° 1012.3 hPa 3.8 m/s 83.7 mm 14.9° 1012.3 hPa 3.8 m/s 83.7 mm 14.7° 1013.2 hPa 2.6 m/s
 06:04     21:19    Daglengte: 15:15 Woensdag 04 Aug
02:00 11.5° 1013.1 hPa 2.7 m/s 83.7 mm 11.5° 1013.1 hPa 2.7 m/s 83.7 mm 13.6° 1013.2 hPa 2.6 m/s
05:00 13.3° 1012.1 hPa 3.6 m/s 15.6 mm 13.3° 1012.1 hPa 3.6 m/s 15.6 mm
08:00 13.0° 1012.6 hPa 3.7 m/s 20.3 mm 13.0° 1012.6 hPa 3.7 m/s 20.3 mm
11:00 12.3° 1013.1 hPa 4.1 m/s 24.6 mm 12.3° 1013.1 hPa 4.1 m/s 24.6 mm
14:00 13.3° 1013.5 hPa 3.2 m/s 27.9 mm 13.3° 1013.5 hPa 3.2 m/s 27.9 mm
17:00 14.7° 1013.7 hPa 2.7 m/s 28.0 mm 14.7° 1013.7 hPa 2.7 m/s 28.0 mm
20:00 14.3° 1013.8 hPa 2.8 m/s 28.2 mm 14.3° 1013.8 hPa 2.8 m/s 28.2 mm
23:00 13.5° 1014.3 hPa 2.2 m/s 28.4 mm 13.5° 1014.3 hPa 2.2 m/s 28.4 mm
 06:05     21:17    Daglengte: 15:12 Donderdag 05 Aug
02:00 13.5° 1013.8 hPa 1.4 m/s 28.6 mm 13.5° 1013.8 hPa 1.4 m/s 28.6 mm
05:00 13.3° 1012.6 hPa 2.2 m/s 28.7 mm 13.3° 1012.6 hPa 2.2 m/s 28.7 mm
08:00 13.6° 1012.4 hPa 2.7 m/s 28.7 mm 13.6° 1012.4 hPa 2.7 m/s 28.7 mm
11:00 17.3° 1011.1 hPa 3.3 m/s 28.8 mm 17.3° 1011.1 hPa 3.3 m/s 28.8 mm
14:00 18.4° 1009.5 hPa 4.3 m/s 29.8 mm 18.4° 1009.5 hPa 4.3 m/s 29.8 mm
17:00 18.5° 1008.0 hPa 4.0 m/s 30.5 mm 18.5° 1008.0 hPa 4.0 m/s 30.5 mm
20:00 16.4° 1006.8 hPa 4.1 m/s 30.5 mm 16.4° 1006.8 hPa 4.1 m/s 30.5 mm
23:00 14.2° 1005.5 hPa 4.4 m/s 30.6 mm 14.2° 1005.5 hPa 4.4 m/s 30.6 mm
 06:07     21:15    Daglengte: 15:08 Vrijdag 06 Aug
02:00 14.2° 1004.4 hPa 5.3 m/s 30.7 mm 14.2° 1004.4 hPa 5.3 m/s 30.7 mm
05:00 14.2° 1002.9 hPa 4.7 m/s 30.8 mm 14.2° 1002.9 hPa 4.7 m/s 30.8 mm
08:00 14.6° 1002.2 hPa 5.1 m/s 31.0 mm 14.6° 1002.2 hPa 5.1 m/s 31.0 mm
11:00 15.4° 1001.9 hPa 6.1 m/s 31.4 mm 15.4° 1001.9 hPa 6.1 m/s 31.4 mm
14:00 15.3° 1001.6 hPa 6.9 m/s 32.4 mm 15.3° 1001.6 hPa 6.9 m/s 32.4 mm
17:00 17.5° 1001.4 hPa 7.0 m/s 33.6 mm 17.5° 1001.4 hPa 7.0 m/s 33.6 mm
20:00 17.1° 1002.0 hPa 6.5 m/s 35.6 mm 17.1° 1002.0 hPa 6.4 m/s 35.6 mm
23:00 15.0° 1004.1 hPa 6.5 m/s 35.9 mm 15.0° 1004.1 hPa 6.5 m/s 35.9 mm
 06:08     21:13    Daglengte: 15:05 Zaterdag 07 Aug
02:00 14.8° 1005.2 hPa 7.5 m/s 35.9 mm 14.8° 1005.2 hPa 7.5 m/s 35.9 mm
05:00 14.2° 1006.4 hPa 6.5 m/s 35.9 mm 14.2° 1006.4 hPa 6.5 m/s 35.9 mm
08:00 14.1° 1007.6 hPa 6.3 m/s 35.9 mm 14.1° 1007.6 hPa 6.3 m/s 35.9 mm
11:00 15.4° 1008.8 hPa 6.0 m/s 35.9 mm 15.4° 1008.8 hPa 6.0 m/s 35.9 mm
14:00 18.8° 1009.1 hPa 5.8 m/s 36.0 mm 18.8° 1009.1 hPa 5.8 m/s 36.0 mm
17:00 21.2° 1008.7 hPa 4.4 m/s 36.1 mm 21.2° 1008.7 hPa 4.4 m/s 36.1 mm
20:00 18.8° 1009.3 hPa 2.8 m/s 36.1 mm 18.8° 1009.3 hPa 2.8 m/s 36.1 mm
23:00 17.1° 1009.2 hPa 2.9 m/s 36.3 mm 17.1° 1009.2 hPa 2.9 m/s 36.3 mm
 06:10     21:12    Daglengte: 15:02 Zondag 08 Aug
02:00 15.9° 1009.2 hPa 2.9 m/s 36.3 mm 15.9° 1009.2 hPa 2.9 m/s 36.3 mm
08:00 15.4° 1008.2 hPa 4.9 m/s 38.3 mm 15.4° 1008.2 hPa 4.9 m/s 38.3 mm
14:00 21.5° 1009.3 hPa 8.6 m/s 45.4 mm 21.5° 1009.3 hPa 8.6 m/s 45.4 mm
20:00 18.5° 1009.7 hPa 8.9 m/s 46.0 mm 18.5° 1009.7 hPa 8.9 m/s 46.0 mm
 06:12     21:10    Daglengte: 14:58 Maandag 09 Aug
02:00 15.3° 1012.4 hPa 9.0 m/s 46.6 mm 15.3° 1012.4 hPa 9.0 m/s 46.6 mm
08:00 15.7° 1015.0 hPa 7.8 m/s 46.8 mm 15.7° 1015.0 hPa 7.8 m/s 46.8 mm
14:00 17.5° 1017.7 hPa 8.2 m/s 49.2 mm 17.5° 1017.7 hPa 8.2 m/s 49.2 mm
20:00 16.5° 1020.2 hPa 5.7 m/s 50.5 mm 16.5° 1020.2 hPa 5.7 m/s 50.5 mm
 06:13     21:08    Daglengte: 14:55 Dinsdag 10 Aug
02:00 14.6° 1021.9 hPa 4.7 m/s 50.6 mm 14.6° 1021.9 hPa 4.7 m/s 50.6 mm
08:00 14.5° 1022.1 hPa 3.7 m/s 50.6 mm 14.5° 1022.1 hPa 3.7 m/s 50.6 mm
14:00 20.4° 1022.6 hPa 4.5 m/s 50.7 mm 20.4° 1022.6 hPa 4.5 m/s 50.7 mm
20:00 19.1° 1019.5 hPa 2.2 m/s 1.0 mm
 06:15     21:06    Daglengte: 14:51 Woensdag 11 Aug
02:00 13.6° 1020.4 hPa 1.5 m/s 0.1 mm
08:00 14.6° 1020.4 hPa 1.9 m/s 0.0 mm
14:00 21.2° 1020.2 hPa 2.1 m/s 0.5 mm
20:00 19.0° 1019.9 hPa 2.0 m/s 0.7 mm
 06:16     21:04    Daglengte: 14:48 Donderdag 12 Aug
02:00 13.9° 1020.5 hPa 0.5 m/s 0.3 mm
08:00 14.8° 1020.3 hPa 0.7 m/s 0.4 mm
14:00 21.9° 1019.8 hPa 1.1 m/s 0.4 mm
20:00 19.8° 1019.4 hPa 1.8 m/s 0.7 mm
 06:18     21:02    Daglengte: 14:44 Vrijdag 13 Aug
02:00 15.1° 1019.8 hPa 0.5 m/s 0.1 mm
08:00 15.9° 1019.6 hPa 1.0 m/s 0.0 mm
14:00 22.5° 1019.4 hPa 1.9 m/s 0.5 mm
20:00 20.0° 1019.0 hPa 1.6 m/s 0.4 mm
 06:20     21:00    Daglengte: 14:40 Zaterdag 14 Aug
02:00 15.4° 1019.3 hPa 0.9 m/s 0.1 mm
08:00 15.9° 1019.0 hPa 1.4 m/s 0.2 mm
14:00 21.9° 1018.7 hPa 1.7 m/s 0.4 mm
20:00 19.8° 1018.2 hPa 1.4 m/s 0.4 mm
 06:21     20:58    Daglengte: 14:37 Zondag 15 Aug
02:00 14.8° 1018.5 hPa 0.8 m/s 0.3 mm
08:00 15.4° 1017.8 hPa 1.8 m/s 0.2 mm
14:00 21.6° 1017.5 hPa 2.7 m/s 0.9 mm
20:00 19.3° 1017.3 hPa 2.1 m/s 0.8 mm
FMI Hirlam - 7.5 km EWN WRFDA - 12 km DWD ICON - 7 km GFS - 25 km Basiskaart






























































Updatetijd (Europe/Amsterdam) Resolutie Lengte Stap
FMI Hirlam 19:00, 01:00, 07:00, 13:00 7.5 km 49h 1h
EWN WRFDA 22:15, 04:15, 10:15, 16:15 12 km 73h 1h
DWD ICON 18:15, 00:15, 06:15, 12:15 7 km 75h 1h
GFS 20:15, 02:15, 08:15, 14:15 25 km 237h 3h
30+ mm
25-30 mm
20-25 mm
15-20 mm
10-15 mm
6-10 mm
4-6 mm
2-4 mm
1-2 mm
0.5-1 mm
0.2-0.5 mm
0.1-0.2 mm
30+ mm
25-30 mm
20-25 mm
15-20 mm
10-15 mm
6-10 mm
4-6 mm
2-4 mm
1-2 mm
0.5-1 mm
0.2-0.5 mm
0.1-0.2 mm
Sneeuwval
Natte sneeuw
Hagel
Vorst
30+ mm
25-30 mm
20-25 mm
15-20 mm
10-15 mm
6-10 mm
4-6 mm
2-4 mm
1-2 mm
0.5-1 mm
0.2-0.5 mm
0.1-0.2 mm
Sneeuwval
Natte sneeuw
Hagel
Vorst
Onweer
50 mm
40 mm
30 mm
26 mm
22 mm
18 mm
14 mm
10 mm
9 mm
8 mm
7 mm
6 mm
5 mm
4.5 mm
4 mm
3.5 mm
3 mm
2.5 mm
2 mm
1.5 mm
1 mm
0.8 mm
0.6 mm
0.4 mm
0.2 mm
0.05 mm
35°
30°
25°
20°
15°
10°
-5°
-10°
-15°
-20°
-25°
-30°
-35°
33> m/s
29 m/s
25 m/s
21 m/s
17 m/s
14 m/s
11 m/s
8 m/s
5 m/s
3 m/s
0 m/s
2600 J/kg
2400 J/kg
2200 J/kg
2000 J/kg
1800 J/kg
1600 J/kg
1400 J/kg
1200 J/kg
1000 J/kg
800 J/kg
600 J/kg
400 J/kg
200 J/kg
70 dBZ
65 dBZ
60 dBZ
55 dBZ
50 dBZ
45 dBZ
40 dBZ
35 dBZ
30 dBZ
25 dBZ
20 dBZ
15 dBZ
10 dBZ
5 dBZ
-1 K
-2 K
-3 K
-4 K
-5 K
-6 K
-7 K
-8 K
-9 K
950 m²/s²
900 m²/s²
850 m²/s²
800 m²/s²
750 m²/s²
700 m²/s²
650 m²/s²
600 m²/s²
550 m²/s²
500 m²/s²
450 m²/s²
400 m²/s²
350 m²/s²
300 m²/s²
250 m²/s²
200 m²/s²
150 m²/s²
100 m²/s²
46 m/s
44 m/s
42 m/s
40 m/s
38 m/s
36 m/s
34 m/s
32 m/s
30 m/s
28 m/s
26 m/s
24 m/s
22 m/s
20 m/s
16 m/s
12 m/s
8 m/s
4 m/s
30 m/s
28 m/s
26 m/s
24 m/s
22 m/s
20 m/s
18 m/s
16 m/s
14 m/s
12 m/s
10 m/s
8 m/s
6 m/s
4 m/s
2 m/s
3.0
2.8
2.6
2.4
2.2
2.0
1.8
1.6
1.4
1.2
1.0
0.8
0.6
0.4
0.2
15
14
13
12
11
10
9
8
7
6
5
4